Location: Newark
(49.4900°N, 20.6656°E)
Time: 11:09:19
(UTC+00:00)

STARLINK-1742 - Pass Details

Date: 24 September 2020
Orbit: 378 x 381 km, 53.0° (Epoch: 25 October)

Event Time Altitude Azimuth Distance (km) Brightness Sun altitude
Exits shadow 01:34:02 18° 59° (ENE) 1,026 5.8 -27.2°
Drops below altitude 10° 01:34:59 10° 66° (ENE) 1,397 6.6 -27.1°
Enters shadow 02:31:02 -69° 269° (W) 12,285 10.4 -19.2°
Maximum altitude 03:08:06 47° 11° (N) 511 3.6 -13.5°
